Simultaneous Nadir Overpasses (SNOs) Predictions

Prediction of SNOs between NOAA-20 and AQUA Satellite Orbit:

Table of predicted SNOs for the next 14.0 days since TLE Epoch: 2/15/2025
Index Date (NOAA-20) Time (NOAA-20) Lat,Lon (NOAA-20) SZA (NOAA-20 ) Date (AQUA) Time (AQUA) Lat,Lon (AQUA) SZA (AQUA ) Distance(km) Time Diff (sec)
1 02/15/2025 04:16:36 81.31, 46.74 99.87 02/15/2025 04:17:08 81.32, 46.72 99.86 0.76 32
2 02/15/2025 05:07:20 -81.31,-145.64 80.19 02/15/2025 05:06:28 -81.31,-145.82 80.13 3.07 52
3 02/17/2025 14:38:16 -81.31, 71.14 80.95 02/17/2025 14:38:40 -81.31, 71.28 80.98 2.33 24
4 02/17/2025 15:28:59 81.31,-121.12 98.98 02/17/2025 15:27:58 81.31,-121.23 99.03 2.04 61
5 02/20/2025 00:59:54 81.31, 95.99 98.16 02/20/2025 01:00:08 81.31, 95.98 98.15 0.19 14
6 02/20/2025 01:50:38 -81.31, -96.39 81.91 02/20/2025 01:49:28 -81.31, -96.50 81.85 2.02 70
7 02/22/2025 11:21:33 -81.31, 120.66 82.75 02/22/2025 11:21:37 -81.31, 120.50 82.73 2.88 4
8 02/24/2025 21:43:12 81.31, 145.38 96.34 02/24/2025 21:43:02 81.32, 145.40 96.34 0.53 10
9 02/27/2025 07:14:07 81.31, 2.30 95.49 02/27/2025 07:15:08 81.31, 2.28 95.45 0.55 61



Historial Predications of SNOs between NOAA-20 and AQUA
